Terminal Aerodrome Forecast
Issued by NWS

Home | Current Version | Previous Version | Text Only | Print | Product List | Glossary On
Versions: 1 2 3 4 5 6 7 8 9 10 11 12 13 14 15
019
FTUS45 KRIW 082328
TAFRKS
TAF
KRKS 082328Z 0900/0924 VRB05KT P6SM -SN SCT025 BKN040
      TEMPO 0900/0902 2SM -SN BKN025
     FM090200 25007KT P6SM VCSH SCT025 BKN040
     FM090900 25012G22KT P6SM VCSH SCT025 BKN040=

USA.gov is the U.S. government's official web portal to all federal, state and local government web resources and services.